This demonstration page uses our WeatherBlox Daily Observations layout. Learn more.

Left ArrowRight Arrow

Hourly Observations for August 6, 2015

Temp ( °F °C ) Dew Point ( °F °C ) Humidity (%) Winds ( mph kmh ) Pressure ( in mb ) Visibility ( mi km ) Precip ( " mm )
12:15 am 00:15 Clear 68 20 64 18 88 88 S 7 11 29.88 1012 7 11 0.00 0.00
12:35 am 00:35 Clear 68 20 64 18 88 88 S 9 15 29.85 1011 8 13 0.00 0.00
12:55 am 00:55 Clear 68 20 64 18 88 88 S 7 11 29.88 1012 7 11 0.00 0.00
1:15 am 01:15 Clear 66 19 63 17 88 88 S 7 11 29.91 1013 6 10 0.00 0.00
1:35 am 01:35 Clear 66 19 63 17 88 88 SSE 7 11 29.85 1011 5 8 0.00 0.00
1:55 am 01:55 Clear 66 19 63 17 88 88 SSE 8 13 29.85 1011 5 8 0.00 0.00
2:15 am 02:15 Clear 66 19 64 18 94 94 SSE 10 17 29.85 1011 6 10 0.00 0.00
2:35 am 02:35 Clear 66 19 64 18 94 94 SSE 9 15 29.83 1010 5 8 0.00 0.00
2:55 am 02:55 Clear 66 19 64 18 94 94 SSE 10 17 29.83 1010 5 8 0.00 0.00
3:15 am 03:15 Clear 66 19 63 17 88 88 S 8 13 29.85 1011 5 8 0.00 0.00
3:35 am 03:35 Clear 66 19 64 18 94 94 SSE 9 15 29.85 1011 5 8 0.00 0.00
3:55 am 03:55 Clear 66 19 64 18 94 94 SSE 7 11 29.85 1011 5 8 0.00 0.00
4:15 am 04:15 Clear 66 19 63 17 88 88 SSE 7 11 29.85 1011 4 6 0.00 0.00
4:35 am 04:35 Clear 66 19 63 17 88 88 ESE 8 13 29.85 1011 3 5 0.00 0.00
4:55 am 04:55 Clear 66 19 63 17 88 88 E 6 9 29.85 1011 3 5 0.00 0.00
5:15 am 05:15 Clear 66 19 63 17 88 88 ESE 7 11 29.85 1011 3 5 0.00 0.00
5:35 am 05:35 Clear 66 19 63 17 88 88 SE 8 13 29.83 1010 4 6 0.00 0.00
5:55 am 05:55 Clear 66 19 63 17 88 88 SE 8 13 29.83 1010 5 8 0.00 0.00
6:15 am 06:15 Clear 66 19 63 17 88 88 SE 7 11 29.85 1011 5 8 0.00 0.00
6:35 am 06:35 Clear 66 19 63 17 88 88 E 3 6 29.85 1011 4 6 0.00 0.00
6:55 am 06:55 Sunny 66 19 63 17 88 88 SE 8 13 29.91 1013 4 6 0.00 0.00
7:15 am 07:15 Mostly Sunny 66 19 63 17 88 88 SE 10 17 29.85 1011 3 5 0.00 0.00
7:35 am 07:35 Sunny 66 19 63 17 88 88 SE 8 13 29.85 1011 3 5 0.00 0.00
7:55 am 07:55 Mostly Sunny 66 19 63 17 88 88 Calm 29.94 1014 4 6 0.00 0.00
8:15 am 08:15 Mostly Cloudy 66 19 63 17 88 88 SW 6 9 29.94 1014 4 6 0.00 0.00
8:35 am 08:35 Mostly Cloudy 66 19 63 17 88 88 E 7 11 29.94 1014 3 4 0.00 0.00
8:55 am 08:55 Mostly Cloudy 66 19 64 18 94 94 ESE 8 13 29.91 1013 2 3 0.01 0.25
9:15 am 09:15 Mostly Cloudy 66 19 64 18 94 94 SE 9 15 29.91 1013 3 4 0.00 0.00
9:35 am 09:35 Cloudy 66 19 64 18 94 94 SE 15 24 29.85 1011 3 5 0.00 0.00
9:55 am 09:55 Cloudy 68 20 64 18 88 88 SE 21 33 29.83 1010 4 6 0.00 0.00
10:15 am 10:15 Mostly Cloudy 70 21 64 18 83 83 SE 18 30 29.83 1010 7 11 0.00 0.00
10:35 am 10:35 Mostly Cloudy 70 21 64 18 83 83 SSE 15 24 29.83 1010 9 14 0.00 0.00
10:55 am 10:55 Partly Cloudy 68 20 63 17 83 83 S 6 9 29.85 1011 8 13 0.00 0.00
11:15 am 11:15 Mostly Cloudy 68 20 63 17 83 83 N 12 19 29.91 1013 9 14 0.00 0.00
11:35 am 11:35 Cloudy with Thunderstorms 70 21 64 18 83 83 NNW 12 19 29.97 1015 6 10 0.00 0.00
11:55 am 11:55 Cloudy with Thunderstorms 68 20 64 18 88 88 E 10 17 29.91 1013 5 8 0.01 0.25
12:15 pm 12:15 Cloudy 68 20 64 18 88 88 ESE 7 11 29.88 1012 7 11 0.00 0.00
12:35 pm 12:35 Mostly Cloudy 70 21 64 18 83 83 NE 6 9 29.91 1013 8 13 0.01 0.25
12:55 pm 12:55 Mostly Cloudy 68 20 64 18 88 88 SE 22 35 29.83 1010 5 8 0.01 0.25
1:15 pm 13:15 Mostly Cloudy with Nearby Thunderstorms 68 20 63 17 83 83 SSE 22 35 29.83 1010 10 16 0.00 0.00
1:35 pm 13:35 Mostly Sunny 68 20 63 17 83 83 SSE 20 31 29.80 1009 10 16 0.00 0.00
1:55 pm 13:55 Sunny 72 22 64 18 78 78 S 24 39 29.80 1009 10 16 0.00 0.00
2:15 pm 14:15 Sunny 73 23 64 18 74 74 S 21 33 29.77 1008 10 16 0.00 0.00
2:35 pm 14:35 Sunny 77 25 66 19 69 69 SSW 21 33 29.77 1008 10 16 0.00 0.00
2:55 pm 14:55 Sunny 79 26 64 18 61 61 SSW 22 35 29.77 1008 10 16 0.00 0.00
3:15 pm 15:15 Sunny 79 26 66 19 65 65 SSW 20 31 29.77 1008 10 16 0.00 0.00
3:35 pm 15:35 Sunny 79 26 64 18 61 61 SSW 20 31 29.77 1008 10 16 0.00 0.00
3:55 pm 15:55 Sunny 79 26 64 18 61 61 SSW 17 28 29.77 1008 10 16 0.00 0.00
4:15 pm 16:15 Sunny 79 26 66 19 65 65 SSW 15 24 29.77 1008 10 16 0.00 0.00
4:35 pm 16:35 Sunny 81 27 66 19 62 62 SSW 14 22 29.74 1007 10 16 0.00 0.00
4:55 pm 16:55 Sunny 81 27 66 19 62 62 SW 14 22 29.74 1007 10 16 0.00 0.00
5:15 pm 17:15 Sunny 81 27 66 19 62 62 WSW 13 20 29.74 1007 10 16 0.00 0.00
5:35 pm 17:35 Sunny 81 27 66 19 62 62 WSW 14 22 29.74 1007 10 16 0.00 0.00
5:55 pm 17:55 Sunny 81 27 66 19 62 62 SW 15 24 29.74 1007 10 16 0.00 0.00
6:15 pm 18:15 Partly Cloudy 81 27 68 20 66 66 WSW 12 19 29.74 1007 10 16 0.00 0.00
6:35 pm 18:35 Cloudy 81 27 68 20 66 66 W 15 24 29.74 1007 10 16 0.00 0.00
6:55 pm 18:55 Cloudy 81 27 68 20 66 66 WSW 13 20 29.74 1007 10 16 0.00 0.00
7:15 pm 19:15 Mostly Cloudy 79 26 68 20 70 70 WSW 12 19 29.77 1008 10 16 0.00 0.00
7:35 pm 19:35 Mostly Sunny 79 26 68 20 70 70 W 12 19 29.77 1008 10 16 0.00 0.00
7:55 pm 19:55 Sunny 79 26 68 20 70 70 WSW 8 13 29.77 1008 10 16 0.00 0.00
8:15 pm 20:15 Sunny 77 25 68 20 74 74 W 7 11 29.77 1008 10 16 0.00 0.00
8:35 pm 20:35 Sunny 75 24 66 19 74 74 WSW 6 9 29.77 1008 10 16 0.00 0.00
8:55 pm 20:55 Clear 75 24 66 19 74 74 SW 6 9 29.77 1008 10 16 0.00 0.00
9:15 pm 21:15 Clear 73 23 66 19 78 78 WSW 5 7 29.77 1008 10 16 0.00 0.00
9:35 pm 21:35 Clear 73 23 66 19 78 78 SW 6 9 29.80 1009 10 16 0.00 0.00
9:55 pm 21:55 Clear 72 22 64 18 78 78 S 7 11 29.83 1010 10 16 0.00 0.00
10:15 pm 22:15 Clear 72 22 66 19 83 83 SW 7 11 29.83 1010 10 16 0.00 0.00
10:35 pm 22:35 Clear 72 22 66 19 83 83 Calm 29.83 1010 10 16 0.00 0.00
10:55 pm 22:55 Clear 70 21 64 18 83 83 Calm 29.83 1010 8 13 0.00 0.00
11:15 pm 23:15 Clear 70 21 64 18 83 83 SW 7 11 29.83 1010 8 13 0.00 0.00
11:35 pm 23:35 Clear 70 21 66 19 88 88 Calm 29.83 1010 10 16 0.00 0.00
11:55 pm 23:55 Clear 66 19 63 17 88 88 Calm 29.83 1010 7 11 0.00 0.00

Powered by AerisWeather